Temperature
23 23 23 23 23 23 23 23 22 22 22 21 21 21 21 20 19 19 18 18 18 17 17 16 16 16 16 16 16 16 16 16 15 15 15 15 15 15 15 15 15 14 14 14
23 23 23 23 22 22 22 22 22 22 21 21 21 21 21 20 19 19 18 18 18 17 17 16 16 16 16 16 16 16 16 16 15 15 15 15 15 15 15 15 14 14 14 14
23 23 22 22 22 22 22 22 22 22 21 21 21 21 21 21 19 18 18 17 17 17 17 16 16 16 16 16 16 16 16 15 15 15 15 15 15 15 14 14 14 14 14 14
23 22 22 22 22 22 22 22 22 21 21 21 21 21 21 21 20 19 18 17 17 17 17 16 16 16 16 16 16 15 15 15 15 15 15 15 15 14 14 14 14 14 14 14
22 22 22 22 22 22 22 21 22 21 21 21 21 21 21 21 20 20 19 18 17 17 16 16 16 16 16 16 16 15 15 15 15 15 15 15 15 14 14 14 14 14 14 14
22 22 22 22 22 22 21 21 21 21 22 21 21 21 21 21 20 20 19 18 17 17 16 16 16 15 15 15 15 15 15 15 15 15 15 15 14 14 14 14 14 14 14 14
22 22 22 22 22 21 22 22 21 21 21 21 21 21 21 21 20 19 19 18 17 16 16 16 15 15 15 15 15 15 15 15 15 15 15 14 14 14 14 14 14 13 13 13
22 22 22 22 22 22 22 22 21 21 21 21 21 20 21 20 19 18 18 17 17 16 16 15 15 15 15 15 15 15 15 15 14 14 14 14 14 14 14 14 13 13 13 13
22 22 21 21 21 22 21 22 22 21 21 21 21 21 20 20 19 18 18 17 17 16 16 15 15 15 15 15 15 14 14 14 14 14 14 14 14 14 14 13 13 13 13 13
22 21 21 21 21 20 21 21 21 21 20 20 21 21 21 20 20 19 18 18 17 16 16 15 15 15 15 15 15 14 14 14 14 14 14 14 14 14 14 13 13 13 13 13
21 21 21 21 21 21 20 20 21 21 20 20 20 21 21 20 20 19 19 17 17 16 16 15 15 15 14 15 14 14 14 14 14 14 14 14 14 14 13 13 13 13 13 13
20 21 21 21 20 20 21 21 21 20 20 20 20 20 20 20 19 18 18 17 16 16 15 15 15 14 14 14 14 14 14 14 14 14 14 14 13 13 13 13 13 13 13 13
20 20 20 20 20 20 20 20 20 20 20 20 20 20 19 19 19 18 17 16 16 16 15 15 14 14 14 14 14 14 14 14 14 14 13 13 13 13 13 13 13 13 13 13
19 20 20 20 20 20 20 19 19 20 20 20 20 20 20 19 19 18 17 16 16 15 15 15 14 14 14 14 14 14 14 13 13 13 13 13 13 13 13 12 12 12 12 12
19 20 20 20 19 19 19 19 19 19 20 20 20 20 20 19 18 17 17 16 16 15 15 14 14 14 14 13 13 13 13 13 13 13 13 13 13 12 12 12 12 12 12 12
19 19 19 19 19 19 18 19 19 19 19 19 19 19 20 18 17 17 16 16 15 15 14 14 14 14 13 13 13 13 13 12 12 12 13 13 12 12 12 12 12 12 12 11
18 19 19 19 19 18 18 19 19 19 19 19 19 19 18 18 17 16 16 15 15 14 14 14 13 13 13 13 13 12 12 12 12 12 12 12 12 12 11 11 11 11 11 11
18 18 18 18 18 18 19 19 19 18 18 19 19 18 17 17 16 15 15 15 14 14 13 13 13 13 12 12 12 12 12 12 12 11 11 11 11 11 11 11 11 11 11 11
17 18 18 18 18 18 19 18 18 18 18 18 18 17 16 16 16 15 14 13 13 13 13 12 12 12 12 12 12 12 11 11 11 11 11 11 11 11 11 10 10 10 10 10
16 17 18 17 17 18 18 18 17 17 17 17 17 16 16 15 17 16 14 13 13 12 12 12 12 12 11 11 11 11 11 11 11 10 10 10 10 10 10 10 10 10 10 9
16 16 17 17 17 18 18 16 16 17 18 16 15 15 15 15 16 14 13 12 12 12 12 11 11 11 11 11 11 11 11 10 10 10 10 10 10 10 10 10 10 9 9 9
17 17 17 17 17 17 16 16 17 17 16 15 14 14 14 13 13 12 12 12 12 11 11 11 11 11 10 10 10 10 10 10 10 10 10 10 9 9 9 9 9 9 9 9
16 17 17 17 17 16 15 16 15 14 14 14 14 13 13 12 12 12 11 11 11 11 11 10 10 10 10 10 10 10 10 9 9 9 9 9 9 9 9 9 9 8 8 8
16 14 15 15 16 15 14 14 13 13 13 13 12 12 12 12 11 11 11 11 10 10 10 10 10 9 9 9 9 9 9 9 9 8 8 8 8 8 8 8 8 8 8 8
15 14 15 15 15 14 13 13 12 12 12 12 12 11 11 11 11 11 10 10 10 10 9 9 9 9 9 9 9 9 8 8 8 8 8 8 7 8 8 8 8 7 7 7
13 14 15 15 15 15 14 12 12 12 11 11 11 11 10 10 10 10 10 9 9 9 9 9 9 8 8 8 8 8 8 8 7 7 7 7 7 7 7 7 7 7 7 7
Wind_Speed
2 4 4 3 3 2 2 3 2 1 1 1 2 2 1 1 2 3 3 3 3 3 2 2 2 2 3 2 2 2 3 3 3 3 2 2 2 2 2 1 1 1 2 2
4 4 2 2 3 4 4 4 3 1 1 2 1 2 2 2 3 3 4 3 3 2 2 2 2 2 2 3 2 2 2 2 2 2 2 2 2 2 2 2 2 2 2 2
4 1 3 4 4 5 6 5 4 2 2 3 3 3 3 3 3 3 3 3 3 3 3 3 2 2 2 2 2 2 2 2 2 2 2 2 2 2 3 3 2 2 2 2
4 2 3 5 5 5 6 3 4 4 5 3 3 4 2 3 4 3 3 3 3 3 3 3 3 2 2 1 1 2 3 2 2 3 2 3 3 3 2 2 2 3 3 3
3 3 4 4 3 5 2 1 3 5 5 5 5 5 2 3 4 3 3 4 3 3 3 3 3 2 1 1 1 2 2 2 2 2 2 3 3 2 2 2 2 3 3 3
3 3 3 3 2 3 4 4 4 4 5 6 4 5 3 3 3 2 2 4 4 3 3 3 2 2 1 1 1 1 2 2 2 2 3 3 3 3 3 3 3 3 3 2
4 4 3 3 4 5 5 5 4 5 5 3 1 4 2 0 0 1 1 2 3 3 3 3 3 2 1 1 1 1 2 3 3 3 3 3 4 4 4 4 3 3 3 2
5 4 4 3 5 4 6 6 5 4 4 2 3 4 0 1 1 1 1 2 3 3 3 3 3 2 2 2 2 2 2 3 3 3 3 3 3 3 3 4 3 3 3 2
4 3 3 2 2 4 5 6 4 5 5 5 3 2 1 1 1 1 2 3 4 4 4 4 4 3 2 2 2 2 3 2 2 3 3 3 3 3 3 4 4 3 3 2
4 4 3 3 4 2 3 3 4 5 4 5 3 4 2 1 1 2 3 3 4 3 4 4 4 4 3 2 2 2 2 2 2 2 2 2 3 4 3 3 4 4 4 3
5 5 4 5 5 5 4 5 4 4 4 4 4 0 2 1 0 1 2 3 3 4 4 4 4 4 3 2 2 2 2 2 1 2 2 2 3 3 3 3 4 4 4 4
4 4 5 4 2 2 5 5 6 5 4 4 5 1 3 1 1 1 1 2 2 3 3 4 3 3 3 3 2 2 2 2 2 2 2 2 2 2 2 3 3 3 3 4
4 5 5 5 5 4 4 5 6 6 5 6 7 2 4 1 1 1 1 1 1 2 2 3 3 3 3 3 3 3 3 3 2 2 2 2 2 2 3 2 2 2 2 3
3 5 7 6 3 3 5 6 7 8 7 8 8 6 3 2 2 1 1 1 1 1 2 2 3 3 3 3 3 3 3 3 3 2 2 2 2 3 3 3 3 2 2 2
4 6 6 6 4 4 7 7 8 10 10 10 8 7 6 4 3 2 1 0 1 1 1 2 3 2 2 3 3 3 3 3 3 3 3 3 2 3 3 3 2 2 2 2
3 5 5 6 5 5 7 8 9 10 10 10 10 9 4 3 2 1 1 1 1 2 2 2 2 2 2 2 2 3 4 4 4 4 3 3 2 2 3 3 2 1 1 2
3 5 6 6 4 5 8 7 8 8 8 9 10 7 2 2 2 2 2 2 2 2 2 2 2 2 2 2 2 2 3 3 3 3 3 3 3 2 3 3 2 2 2 2
5 6 5 5 5 8 2 1 3 6 6 7 6 4 3 2 2 2 2 2 2 2 1 1 1 1 1 1 1 1 2 2 2 2 2 2 2 2 2 3 3 3 3 2
6 6 5 5 7 7 4 3 3 5 5 4 4 3 2 2 2 2 0 1 2 2 2 1 1 1 1 0 0 1 1 1 1 1 2 2 2 2 2 3 3 3 3 3
5 7 6 6 7 6 2 2 2 4 5 2 3 2 2 3 4 3 1 2 2 2 1 1 0 0 1 1 1 1 1 1 1 2 2 2 2 2 3 3 3 2 2 3
6 6 8 9 9 6 1 2 4 5 1 2 2 2 3 4 4 3 2 2 2 2 1 0 1 1 1 1 1 1 1 2 2 2 1 1 2 2 3 3 2 2 2 2
6 6 8 8 8 5 4 4 4 2 2 0 1 2 3 3 3 2 2 2 2 1 1 1 1 1 1 1 2 2 2 2 2 1 1 1 1 1 2 2 2 3 3 3
6 5 4 6 4 2 3 3 1 2 2 2 2 2 3 3 3 3 2 2 2 2 2 2 2 2 2 2 2 3 2 2 2 1 2 2 2 2 2 2 3 3 3 3
5 3 5 6 6 4 3 3 3 2 2 2 2 2 3 3 3 3 3 2 2 1 2 2 2 2 2 2 3 3 2 2 2 2 3 3 2 2 2 2 2 3 3 3
5 5 6 8 7 5 5 4 3 2 2 2 2 2 3 3 3 4 3 3 2 2 2 2 2 2 2 2 3 2 2 2 2 3 3 3 3 3 2 2 2 3 3 3
6 7 7 7 5 6 5 2 3 3 3 3 3 3 3 3 3 3 3 3 2 2 2 2 2 3 3 3 3 3 2 3 3 3 3 3 3 3 3 3 2 1 3 2
Wind_Direction
184 211 214 211 218 245 233 238 251 272 124 217 222 247 256 182 172 194 192 184 180 170 157 140 145 157 182 183 191 193 195 184 181 183 183 183 172 156 141 134 152 172 179 170
197 210 209 185 180 202 218 235 242 181 144 238 231 269 264 206 202 212 215 207 205 190 168 153 154 153 164 180 183 191 198 188 187 191 192 196 174 157 143 145 140 158 175 171
214 164 172 199 205 222 235 245 255 253 208 215 246 247 214 198 185 193 220 226 224 214 205 176 167 162 167 174 186 193 192 184 185 187 184 179 165 170 166 165 162 158 166 171
217 207 196 213 224 237 241 242 252 244 245 249 246 269 219 196 195 206 216 218 224 216 203 190 178 171 180 191 195 205 194 180 175 184 192 198 194 189 179 164 161 168 173 177
202 195 209 224 231 234 250 202 233 243 255 262 242 260 230 189 219 218 212 208 206 200 193 191 187 186 189 177 185 203 188 173 170 182 178 195 197 190 165 158 174 187 180 183
215 199 233 241 221 204 169 177 190 220 244 255 247 247 249 207 230 236 205 200 195 185 179 180 175 164 154 134 155 180 184 177 177 178 184 191 197 193 182 179 187 200 187 187
212 195 189 202 197 176 209 231 234 224 224 242 157 243 253 95 273 273 255 203 190 180 174 170 166 157 151 148 161 171 183 195 194 191 188 197 204 206 204 199 203 206 199 198
228 208 185 201 223 219 220 242 260 269 262 253 206 239 200 73 317 275 233 189 171 170 173 174 174 172 172 170 165 172 193 208 202 202 197 203 202 216 219 214 213 216 219 213
239 214 152 183 220 230 219 231 265 276 276 268 232 209 219 167 206 191 173 166 169 174 180 182 180 179 179 180 183 190 197 209 210 216 212 209 211 216 223 226 225 224 228 226
255 244 191 173 184 166 251 222 225 240 260 257 238 237 244 189 210 170 175 175 178 181 190 189 183 183 184 185 191 192 198 202 209 219 223 217 222 223 228 231 228 229 229 229
242 238 203 190 211 214 189 204 227 238 260 274 271 202 41 327 39 157 176 183 182 186 188 187 186 188 184 174 182 188 194 198 214 224 236 237 224 226 229 236 242 243 238 232
222 242 232 211 181 263 228 228 230 243 240 248 271 275 79 26 65 101 137 157 177 188 188 184 179 178 182 187 198 202 205 215 223 232 248 256 240 220 227 235 242 248 245 235
198 229 231 205 192 192 214 225 232 243 253 247 251 237 115 103 81 73 97 135 155 167 178 182 177 183 196 203 209 212 218 228 232 230 243 259 259 248 243 243 239 236 236 234
223 234 245 251 262 221 223 222 224 232 243 249 248 260 251 265 292 319 327 189 177 178 185 186 190 197 206 214 216 218 222 227 233 234 241 250 265 269 263 253 236 227 226 226
227 242 246 261 267 251 249 240 226 230 245 257 263 265 275 281 287 292 290 259 210 213 224 219 215 217 218 224 228 227 227 229 230 236 243 251 262 269 264 255 240 218 214 225
232 240 242 243 237 245 252 246 235 237 243 248 258 262 276 288 283 286 288 288 261 252 243 235 225 223 225 229 234 236 234 236 238 242 246 249 250 254 258 250 243 227 207 214
216 232 242 249 240 253 253 239 232 233 237 245 252 261 262 265 270 277 281 281 272 271 263 249 244 240 236 238 237 239 238 238 243 251 258 256 244 232 238 238 233 226 217 214
229 233 242 256 245 244 231 131 227 238 248 250 256 257 250 269 275 272 281 298 307 304 287 276 269 267 286 284 257 241 226 229 237 252 266 267 251 241 237 230 231 233 234 225
228 227 234 242 250 261 240 208 213 235 256 251 235 236 249 261 261 256 353 341 316 310 287 273 293 288 271 283 273 212 194 209 238 264 266 260 245 233 230 225 228 235 237 241
199 222 230 233 247 252 235 149 197 238 246 191 216 242 257 257 258 271 318 308 304 305 300 303 279 324 279 280 272 223 212 231 262 267 265 259 245 231 227 227 228 233 230 238
189 203 222 233 244 256 191 150 193 230 284 113 227 251 244 252 286 307 293 289 290 287 278 232 224 262 285 269 255 249 260 268 278 275 275 268 246 236 232 231 224 216 218 225
218 215 221 226 236 243 142 166 213 288 24 337 281 275 261 270 295 296 271 272 274 256 233 225 242 271 288 270 245 247 270 293 306 287 281 277 272 258 231 221 223 218 215 226
228 234 237 231 247 342 181 211 267 338 304 303 294 289 272 261 266 271 265 268 264 249 236 239 246 264 279 280 263 261 275 293 293 283 267 271 269 266 252 233 226 223 221 230
224 239 240 250 253 254 250 250 261 268 286 301 298 284 266 261 270 273 269 262 257 256 250 247 247 254 269 284 285 281 282 281 279 282 273 267 268 271 254 235 231 230 229 232
248 225 243 254 258 260 252 244 248 261 282 298 303 280 265 263 267 267 261 255 253 251 255 256 257 271 287 294 295 297 288 271 269 270 276 265 265 258 249 239 237 238 240 244
233 235 243 256 262 266 272 279 268 255 265 278 280 279 270 261 261 258 258 254 253 254 257 272 286 297 299 298 297 298 283 267 265 268 271 271 256 250 244 241 245 221 232 219
Height
1512 1512 1511 1511 1511 1512 1513 1514 1516 1516 1517 1519 1519 1520 1521 1523 1524 1525 1526 1527 1528 1529 1530 1531 1531 1532 1533 1534 1534 1535 1535 1536 1536 1537 1537 1537 1537 1537 1538 1538 1539 1540 1540 1541
1511 1512 1512 1512 1513 1513 1514 1515 1516 1517 1518 1518 1518 1520 1520 1522 1523 1524 1525 1526 1527 1528 1529 1530 1530 1531 1532 1533 1533 1534 1534 1535 1535 1535 1536 1536 1536 1536 1537 1537 1538 1538 1539 1540
1510 1512 1513 1513 1514 1514 1514 1514 1515 1517 1518 1518 1519 1519 1518 1519 1522 1524 1524 1525 1526 1527 1528 1528 1529 1530 1531 1531 1532 1532 1533 1534 1534 1534 1534 1535 1535 1535 1536 1536 1537 1537 1538 1539
1510 1511 1513 1512 1512 1513 1515 1513 1515 1516 1518 1517 1518 1522 1516 1516 1518 1521 1522 1523 1524 1525 1526 1527 1528 1529 1529 1530 1531 1531 1532 1533 1533 1533 1533 1534 1534 1535 1535 1536 1536 1536 1537 1538
1509 1511 1512 1513 1512 1513 1513 1514 1514 1515 1515 1516 1515 1519 1514 1513 1515 1517 1519 1521 1523 1524 1525 1526 1527 1528 1528 1529 1529 1530 1531 1531 1531 1532 1532 1532 1533 1534 1534 1534 1535 1535 1536 1536
1508 1511 1511 1511 1512 1513 1514 1515 1515 1514 1514 1521 1514 1517 1516 1511 1513 1514 1517 1519 1521 1523 1524 1525 1526 1527 1527 1528 1528 1529 1529 1530 1530 1531 1531 1531 1532 1532 1533 1533 1534 1534 1534 1535
1509 1509 1510 1512 1512 1513 1513 1514 1519 1519 1519 1516 1513 1516 1514 1510 1513 1515 1516 1518 1520 1521 1522 1524 1525 1525 1526 1526 1527 1528 1528 1529 1529 1530 1530 1530 1531 1531 1532 1532 1533 1533 1533 1533
1511 1511 1509 1510 1510 1511 1510 1511 1519 1523 1519 1514 1514 1515 1511 1512 1514 1515 1516 1518 1519 1520 1521 1522 1523 1524 1525 1525 1526 1526 1527 1527 1528 1528 1529 1529 1529 1530 1530 1531 1531 1532 1532 1532
1508 1510 1508 1510 1510 1509 1510 1510 1509 1513 1512 1516 1511 1511 1511 1511 1513 1514 1515 1517 1518 1519 1520 1521 1522 1523 1524 1524 1525 1525 1526 1526 1526 1527 1527 1528 1528 1528 1529 1529 1530 1530 1530 1530
1505 1509 1507 1510 1510 1511 1509 1509 1511 1514 1520 1519 1513 1511 1510 1509 1510 1511 1513 1515 1517 1518 1519 1520 1521 1522 1523 1523 1524 1525 1525 1525 1525 1526 1526 1526 1526 1527 1527 1527 1527 1528 1528 1528
1506 1508 1509 1508 1509 1508 1511 1512 1510 1511 1512 1517 1517 1513 1506 1507 1509 1511 1512 1514 1516 1517 1518 1519 1520 1521 1521 1522 1523 1523 1523 1524 1524 1524 1524 1524 1524 1525 1525 1525 1525 1525 1525 1526
1507 1506 1506 1506 1507 1508 1507 1507 1509 1513 1512 1512 1514 1514 1507 1508 1510 1512 1513 1514 1515 1516 1517 1518 1518 1519 1520 1521 1522 1522 1522 1522 1522 1522 1522 1522 1522 1522 1522 1523 1522 1522 1522 1523
1507 1506 1508 1508 1511 1510 1508 1508 1508 1508 1509 1511 1513 1512 1508 1509 1510 1512 1513 1513 1514 1515 1516 1516 1517 1517 1518 1519 1520 1520 1520 1520 1520 1520 1520 1520 1520 1521 1521 1521 1520 1520 1520 1520
1508 1504 1506 1508 1504 1504 1507 1508 1508 1508 1509 1508 1507 1506 1506 1507 1509 1511 1512 1513 1513 1514 1514 1515 1515 1516 1516 1517 1517 1518 1518 1518 1518 1518 1518 1518 1518 1518 1518 1518 1518 1518 1517 1518
1507 1504 1503 1503 1504 1505 1505 1505 1506 1506 1505 1506 1503 1504 1503 1505 1508 1509 1510 1511 1512 1512 1513 1513 1513 1514 1514 1515 1515 1515 1516 1516 1516 1515 1515 1515 1515 1515 1515 1515 1515 1515 1515 1515
1506 1504 1503 1504 1505 1505 1505 1503 1503 1504 1503 1503 1503 1503 1503 1506 1508 1508 1509 1509 1510 1511 1511 1511 1512 1512 1512 1513 1513 1513 1513 1513 1513 1513 1513 1512 1512 1512 1512 1513 1513 1512 1512 1512
1505 1504 1505 1502 1503 1505 1504 1499 1500 1500 1500 1501 1501 1500 1503 1505 1506 1507 1508 1508 1508 1509 1510 1510 1510 1510 1511 1511 1511 1510 1510 1511 1510 1510 1510 1510 1509 1509 1509 1510 1510 1510 1509 1509
1504 1503 1503 1502 1504 1509 1497 1496 1498 1499 1499 1499 1499 1501 1503 1505 1506 1506 1507 1507 1507 1508 1508 1508 1508 1508 1508 1508 1509 1509 1508 1508 1508 1507 1507 1507 1506 1506 1506 1506 1507 1507 1507 1507
1504 1503 1503 1503 1502 1497 1496 1497 1498 1499 1498 1499 1499 1501 1503 1504 1504 1504 1505 1506 1506 1506 1506 1506 1506 1506 1506 1506 1506 1506 1506 1506 1505 1505 1504 1504 1503 1503 1503 1503 1503 1503 1504 1504
1505 1503 1502 1503 1504 1501 1494 1496 1498 1499 1497 1498 1499 1500 1502 1502 1500 1501 1504 1504 1504 1504 1504 1504 1504 1504 1504 1504 1504 1504 1504 1503 1502 1502 1501 1501 1500 1500 1500 1500 1500 1500 1500 1500
1501 1502 1501 1499 1499 1493 1494 1497 1499 1500 1496 1497 1498 1499 1500 1500 1500 1502 1501 1502 1502 1502 1502 1501 1501 1501 1501 1501 1501 1501 1501 1501 1500 1500 1499 1498 1497 1497 1497 1497 1497 1497 1497 1497
1494 1496 1496 1496 1499 1497 1495 1496 1496 1495 1496 1497 1498 1498 1499 1499 1500 1499 1500 1499 1499 1499 1499 1499 1499 1499 1499 1499 1499 1498 1498 1498 1497 1497 1496 1495 1495 1494 1494 1494 1494 1494 1494 1494
1494 1492 1490 1492 1493 1493 1494 1494 1496 1496 1497 1497 1497 1497 1498 1498 1498 1498 1497 1497 1497 1497 1496 1497 1497 1496 1496 1496 1496 1496 1495 1495 1494 1493 1493 1493 1492 1492 1491 1491 1491 1491 1491 1490
1493 1495 1494 1493 1491 1493 1494 1494 1495 1495 1496 1496 1496 1496 1496 1496 1496 1496 1495 1495 1494 1494 1494 1494 1494 1494 1493 1493 1493 1493 1492 1491 1491 1490 1490 1490 1489 1489 1489 1488 1488 1488 1488 1487
1492 1494 1492 1490 1490 1492 1492 1493 1494 1494 1494 1494 1494 1494 1494 1494 1493 1493 1493 1492 1492 1492 1492 1491 1491 1491 1491 1491 1490 1490 1489 1488 1488 1487 1486 1486 1486 1485 1485 1485 1485 1485 1485 1485
1492 1491 1490 1487 1488 1489 1490 1491 1492 1492 1492 1492 1492 1491 1491 1491 1490 1490 1490 1490 1490 1490 1489 1489 1489 1489 1488 1488 1487 1486 1486 1485 1485 1484 1483 1483 1482 1482 1482 1481 1481 1481 1481 1481